Location: Riedlingen
(48.1569°N, 9.4757°E)
Time: 14:47:15
(UTC+01:00)

Tiangong 1 - Visible Passes

Search period start: 25 February 2018 00:00
Search period end: 07 March 2018 00:00
Orbit: 245 x 266 km, 42.8° (Epoch: 25 February)

Date Brightness Start Highest point End Pass type
(mag) Time Alt. Az. Time Alt. Az. Time Alt. Az.
04 Mar 3.5 20:05:19 10° SW 20:05:24 11° SW 20:05:24 11° SW visible
05 Mar 2.9 19:55:43 10° SW 19:56:28 15° SW 19:56:28 15° SW visible
06 Mar 2.4 19:45:51 10° SW 19:47:11 19° SSW 19:47:11 19° SSW visible
